Starlink 5819

operational
NORAD ID: 55780 Int'l Des: 2023-028 Owner: SPXS Country: US Constellation: starlink
LEOCIRCULAR

About Starlink 5819

Description loading...

Live Position

Loading 3D Globe...

Upcoming Passes

Altitude History

Altitude vs Time

uPlot chart will show altitude changes over time

Two-Line Element Set

1 55780U 23028AR 25308.89076964 .00000043 00000-0 11368-4 0 9997
2 55780 70.0003 178.9490 0002625 270.1654 89.9204 14.98329973147846
Epoch: Nov 4, 2025 • Age: 9 hours

Current Status

Altitude 595.7 km
Velocity 7.56 km/s
Sub-Earth Point -69.95°S, 48.47°W
Launch Date Mar 3, 2023
Age 2.6 years
Type internet

Technical Details

Classification Payload
Mass 305.00 kg
Dry Mass 290.00 kg
Total Mass 305.00 kg
Length 0.20 m
Diameter 2.80 m
Span 9.00 m
Shape Box + pan
Manufacturer SPXS
Bus Type Starlink
Phase Status In Orbit
Owner/State SPXS/US

Large Constellations

Loading constellations...